map of YEI home
Great Circle Mapper logo
YEI - Airport
Location
City:  Bursa, Bursa, Turkey
Name:Yenisehir
ICAO:LTBR
IATA:YEI

Details
Type:Airport (Aerodrome, Airfield)
Use:Public/Civil, Military
Latitude:4015'19"N (40.255208)
Longitude:2933'45"E (29.562569)
Datum:WGS 1984
Elevation:764 ft (233 m)
Variation:5.28E (WMM2015 magnetic declination)
0.10 annual change
Runways:2
Longest:9818 × 148 ft (2993 × 45 m), paved

Time
Time Zone:UTC+2 (DST+3)
Local Time:

Weather
METAR:LTBR 010120Z 05006KT 9999 FEW035 21/15 Q1018 NOSIG RMK RWY07 08004KT
TAF:LTBR 310440Z 3106/0106 VRB02KT CAVOK
BECMG 3106/3109 SCT035
BECMG 3109/3112 34012KT PROB30
TEMPO 3110/3114 -SHRA FEW025CB BKN030
BECMG 3117/3120 VRB02KT CAVOK

Related Locations
Nearby:
Farthest:RVV: 11291 mi / 18170 km
Raivavae, Tubuai Islands, Austral Islands, PF

Find:

   beyond  
but within

Other Information
Maps:
NOTAMs:
Links:
Sources:

  
flag of Turkey   

Sectional Chart

Flight Planning
at skyvector.com

Satellite Image

Google Maps Satellite view

 

Copyright © 2004-2016 Karl L. Swartz. All rights reserved.
The Great Circle Mapper name and logo are trademarks of the Great Circle Mapper.
All other trademarks mentioned herein belong to their respective owners.
Please see credits for attibutions and further copyright information.

  Follow gcmap on Facebook Follow gcmap on Twitter Follow gcmap on Google+ GCmap on LinkedIn

hCard Microformat

Geo Microformat